Location: Unspecified
(33.9239°N, 118.0544°W)
Time: 13:54:56
(UTC-07:00)

Resurs 1-4 Rocket - Visible Passes

Search period start: 26 March 2017 00:00
Search period end: 05 April 2017 00:00
Orbit: 800 x 814 km, 98.5° (Epoch: 25 March)

Date Brightness Start Highest point End Pass type
(mag) Time Alt. Az. Time Alt. Az. Time Alt. Az.
26 Mar 5.0 02:49:06 10° NNE 02:49:17 11° NNE 02:49:17 11° NNE visible
26 Mar 4.4 04:29:58 10° NNW 04:30:22 11° NNW 04:30:22 11° NNW visible
27 Mar 4.3 04:04:38 10° N 04:05:37 15° NNW 04:05:37 15° NNW visible
28 Mar 4.3 03:39:42 10° N 03:40:53 17° N 03:40:53 17° N visible
29 Mar 4.5 03:15:03 10° NNE 03:16:09 17° NNE 03:16:09 17° NNE visible
30 Mar 4.8 02:50:42 10° NNE 02:51:25 14° NNE 02:51:25 14° NNE visible
30 Mar 4.3 04:31:41 10° NNW 04:32:30 13° NNW 04:32:30 13° NNW visible
31 Mar 4.1 04:06:17 10° N 04:07:46 17° NNW 04:07:46 17° NNW visible
01 Apr 4.1 03:41:20 10° N 03:43:01 21° N 03:43:01 21° N visible
02 Apr 4.2 03:16:40 10° NNE 03:18:17 20° NNE 03:18:17 20° NNE visible
03 Apr 4.6 02:52:17 10° NNE 02:53:32 17° NNE 02:53:32 17° NNE visible
03 Apr 4.1 04:33:23 10° NNW 04:34:38 14° NW 04:34:38 14° NW visible
04 Apr 4.9 02:28:15 10° NE 02:28:48 12° NE 02:28:48 12° NE visible
04 Apr 3.9 04:07:57 10° N 04:09:53 20° NNW 04:09:53 20° NNW visible
